Theta_e
310 310 310 309 309 309 309 310 310 310 311 311 312 312 313 313 314 315 316 314 313 312 312 312 313 314 316 318 316 315 319 319 320 320 321 319 319 317 317 318 317 315 315 314 314
310 310 310 310 310 309 309 310 310 311 311 312 312 313 314 316 317 318 316 314 313 312 312 314 316 316 317 319 319 319 319 318 319 319 320 319 319 318 318 318 316 315 313 313 313
311 311 311 310 310 309 309 310 310 311 311 312 313 314 316 318 319 317 313 312 312 312 312 312 315 315 317 318 318 318 318 316 317 318 319 319 318 317 318 318 317 317 314 312 312
311 310 311 311 310 310 309 309 310 311 312 312 313 316 318 319 321 315 311 311 312 312 312 313 315 316 317 318 318 318 316 316 317 317 317 318 318 318 317 316 313 313 312 312 311
310 310 310 311 310 310 309 309 310 311 311 312 314 317 319 319 320 319 314 311 311 311 315 316 315 316 318 317 317 318 318 317 317 317 317 316 317 317 316 312 311 311 311 310 310
310 310 310 310 310 310 309 309 310 311 311 312 315 318 319 320 319 318 318 316 311 312 313 314 315 315 316 317 317 317 317 317 316 316 316 316 317 315 316 312 310 310 309 309 310
310 310 310 310 310 310 309 309 310 311 311 312 317 319 318 320 319 318 317 317 315 312 315 313 313 315 316 317 315 316 317 318 317 316 316 315 317 315 314 311 311 310 309 309 310
309 309 309 310 310 310 308 308 310 311 311 313 317 318 319 319 318 318 317 316 315 313 312 312 312 315 316 315 315 317 318 321 320 315 315 315 321 317 312 311 312 311 309 309 309
309 309 309 310 310 309 308 308 309 311 311 314 318 318 319 318 317 317 316 315 315 314 312 312 314 316 315 317 319 319 322 322 320 316 316 316 321 315 311 312 313 312 310 307 306
307 310 310 310 310 309 308 308 310 311 313 316 318 318 318 316 316 316 316 315 314 313 313 314 315 317 317 319 322 322 322 321 321 317 316 317 318 315 312 312 313 312 310 308 306
316 307 309 310 310 308 307 309 312 318 315 318 320 319 316 316 315 314 315 313 314 315 317 315 317 319 319 319 320 320 321 321 321 317 316 318 318 319 314 312 313 312 310 308 305
323 316 307 308 308 308 309 316 317 316 319 319 318 318 316 315 312 313 314 314 314 317 317 316 317 319 319 319 319 318 319 320 321 315 315 318 319 319 318 314 313 313 311 308 304
324 320 314 308 308 310 310 312 312 317 319 318 319 318 317 316 315 314 314 314 315 317 316 319 319 316 316 316 317 318 319 320 320 316 314 316 318 319 318 315 312 311 310 307 305
325 323 317 311 314 314 315 309 313 317 319 317 318 319 317 316 315 314 314 313 312 317 316 317 318 315 315 317 317 319 318 317 317 317 321 317 322 321 321 315 311 309 308 306 304
324 322 318 315 315 315 314 311 317 316 321 319 318 315 315 317 315 311 312 311 316 315 314 318 314 314 316 317 316 318 315 316 316 318 319 320 318 320 319 317 313 309 307 305 304
322 323 319 317 316 317 314 316 318 320 320 319 314 315 315 316 312 309 309 310 313 315 313 316 312 314 316 313 314 314 315 314 315 317 322 320 321 322 321 316 315 309 306 305 303
321 322 319 317 317 317 316 318 320 321 318 317 317 315 317 316 312 312 311 311 315 316 318 316 316 314 313 315 311 314 317 323 323 321 323 317 322 322 320 313 315 309 306 304 303
319 320 320 318 317 318 317 319 321 318 319 315 315 316 319 314 313 312 312 314 314 317 321 321 323 318 313 318 320 315 319 324 328 327 324 311 318 320 315 311 308 309 306 304 302
317 318 319 319 318 317 317 319 320 318 318 318 315 318 319 315 314 313 314 317 317 317 320 322 323 315 314 315 318 316 317 319 318 311 317 318 316 315 309 307 307 308 305 303 302
313 314 317 318 318 317 318 318 319 318 318 319 319 318 321 318 316 316 317 318 318 316 317 320 323 313 310 310 311 315 315 316 317 324 325 322 320 320 311 309 307 307 305 303 301
314 312 315 317 318 316 318 317 318 318 318 319 320 319 318 320 317 316 321 318 317 316 315 318 319 315 310 312 315 312 314 315 317 319 327 325 321 317 317 312 308 307 305 303 301
314 313 312 315 315 317 317 317 316 318 318 319 318 319 320 319 318 318 319 319 314 314 315 317 319 323 316 313 311 315 315 315 319 319 316 319 322 309 313 314 309 307 305 303 302
313 311 310 318 318 318 316 316 316 317 318 319 319 319 319 319 317 318 318 317 314 314 316 315 318 323 321 312 309 311 312 314 315 315 320 322 321 309 308 309 309 308 306 304 302
312 311 310 312 315 317 316 316 316 316 317 317 318 318 318 320 318 320 319 312 311 313 315 315 317 321 326 323 317 314 313 312 314 317 318 320 319 310 309 309 308 308 306 305 302
310 307 310 314 312 314 317 316 317 317 315 316 318 318 319 319 319 319 318 310 309 310 312 316 318 318 319 319 319 316 314 313 313 314 318 319 318 317 311 310 309 307 306 304 303
306 309 308 311 312 314 314 316 316 316 316 316 317 318 318 319 320 321 319 318 314 309 310 311 316 317 318 318 318 318 317 315 313 313 314 316 317 317 315 310 309 307 306 304 303
305 306 306 310 311 312 310 312 315 315 316 316 315 317 317 317 318 316 315 316 316 314 310 310 312 314 319 317 317 313 315 314 315 313 314 315 315 310 311 309 308 307 306 305 304
Wind_Speed
5 5 4 3 3 3 3 3 3 4 4 5 5 6 6 7 7 7 3 5 6 6 6 4 2 1 1 1 1 1 4 6 5 8 5 7 8 4 1 3 2 2 1 2 4
6 5 5 4 4 4 5 4 4 5 6 6 7 7 7 8 8 6 6 6 7 6 5 4 3 2 2 1 0 3 4 2 3 2 4 8 7 6 5 6 5 3 1 3 2
9 8 7 6 7 6 6 6 6 6 7 8 8 8 8 8 7 3 3 4 6 6 6 6 4 3 3 2 1 1 4 2 3 3 3 6 5 4 5 6 2 3 4 1 3
12 10 9 9 9 9 9 8 8 8 8 8 8 8 7 6 3 3 2 2 5 6 7 6 3 3 3 4 2 5 2 3 2 4 3 5 2 5 6 2 5 6 6 4 2
15 14 12 11 11 11 11 10 10 10 10 9 8 8 8 5 6 6 4 4 5 7 6 4 4 3 6 2 3 6 3 4 4 4 5 2 8 8 8 5 6 4 6 3 2
19 17 16 14 14 13 12 12 12 11 11 10 10 9 6 10 8 8 9 7 7 8 8 5 3 3 3 3 5 1 4 5 6 8 8 7 11 4 10 9 7 6 5 3 3
22 20 18 17 16 15 15 14 13 13 12 11 10 9 10 12 10 8 9 9 10 10 5 8 5 3 2 2 2 2 6 9 12 11 5 8 11 12 10 12 10 7 4 3 5
25 23 21 19 18 17 17 16 15 14 13 12 10 9 8 12 14 15 12 10 10 11 11 8 6 4 2 2 2 4 4 8 8 9 5 10 12 10 12 14 11 7 5 5 7
25 26 24 22 20 19 18 18 17 15 14 12 10 6 8 11 13 16 14 8 10 10 9 8 7 4 4 6 7 8 10 9 5 11 5 11 3 10 14 13 11 9 7 6 4
23 26 27 25 22 20 19 18 17 16 15 12 12 5 14 6 10 13 15 11 6 9 6 6 7 8 8 10 10 10 11 9 10 7 9 11 13 9 13 15 14 12 10 8 7
21 24 28 27 23 21 18 14 10 7 16 13 6 6 4 12 9 11 16 13 8 9 9 11 9 14 18 16 17 8 10 12 8 4 4 13 15 12 17 15 16 14 13 11 9
25 22 26 27 24 21 18 9 10 4 10 15 25 17 12 11 7 13 18 12 11 13 13 5 16 18 13 11 14 13 15 16 13 4 4 12 17 15 17 23 21 18 16 14 11
29 24 26 26 24 22 21 17 15 9 9 18 21 19 20 21 11 18 25 13 11 15 16 17 4 8 10 8 12 16 16 14 14 2 10 12 19 22 24 19 14 15 15 14 14
34 28 26 19 18 19 21 19 14 5 6 16 10 14 20 16 11 14 27 10 7 15 14 14 14 5 10 16 15 16 14 14 12 7 10 6 10 12 11 16 17 18 19 19 18
36 32 32 29 16 23 18 18 13 7 7 3 10 7 11 22 12 11 23 12 14 11 8 6 10 12 13 12 11 8 2 7 11 14 15 18 9 13 7 14 18 23 24 23 22
33 38 34 31 28 19 19 17 21 6 17 6 6 8 9 18 3 7 11 5 6 9 10 14 2 7 11 3 7 10 5 2 3 8 12 18 16 14 13 14 13 23 26 27 26
30 37 42 40 42 30 20 32 7 15 7 11 8 9 15 9 8 9 15 14 12 9 17 14 16 6 6 6 3 12 7 4 5 6 8 1 13 17 2 5 9 24 30 29 26
21 36 46 46 41 37 32 13 11 32 28 8 5 10 14 12 8 9 13 12 22 18 9 15 10 22 17 22 10 18 17 6 6 6 5 2 9 7 3 8 6 20 27 28 28
24 27 45 51 51 42 34 15 19 32 24 19 9 8 13 9 7 10 14 12 15 23 14 12 11 6 7 10 16 7 12 13 4 2 4 7 10 7 7 7 8 21 28 31 32
27 25 33 46 55 49 21 19 20 20 20 23 31 19 17 15 13 15 17 13 15 23 15 5 6 5 5 4 4 9 8 6 6 6 8 9 14 10 9 15 14 20 28 29 30
22 9 20 21 52 41 17 18 29 19 26 21 24 22 25 16 19 14 10 7 20 19 23 8 7 6 7 11 17 7 9 8 6 9 4 5 7 9 13 16 20 21 28 34 36
21 5 9 25 13 13 18 38 21 27 23 20 13 23 20 20 17 19 19 13 25 20 17 14 4 11 14 4 9 17 14 20 6 6 6 4 11 3 3 11 21 24 28 31 35
14 17 18 37 12 14 15 26 27 18 29 20 23 19 20 20 11 21 17 14 22 18 19 13 5 3 4 1 2 9 15 16 19 1 14 8 8 3 6 8 17 23 26 30 32
7 3 12 23 11 17 14 17 29 31 16 31 23 14 12 18 21 11 18 6 20 19 14 15 6 11 18 6 8 9 16 22 17 12 17 25 17 6 10 12 15 20 23 28 34
9 7 7 4 14 20 18 13 19 21 27 19 16 23 22 13 19 26 15 4 2 10 8 11 9 17 23 22 11 8 14 23 28 34 17 32 24 14 16 15 22 23 23 26 29
6 5 10 7 11 9 14 18 22 19 15 19 23 24 23 21 22 12 20 14 8 8 8 3 5 13 22 21 20 21 19 23 30 30 31 32 29 5 20 22 16 21 23 26 29
13 15 9 11 9 8 6 5 19 21 17 22 26 17 19 32 29 22 11 17 7 14 13 11 7 6 17 10 14 5 38 24 26 30 24 28 31 4 6 11 16 17 19 25 31
Wind_Direction
190 196 197 211 232 251 261 281 296 303 310 316 320 323 320 316 314 311 294 254 226 221 209 207 215 237 59 5 38 292 243 225 214 220 178 163 186 172 174 179 117 37 65 216 251
228 230 236 243 248 262 275 282 292 301 306 310 317 321 321 321 317 305 279 252 237 214 195 194 224 215 203 175 249 264 260 226 355 195 196 171 216 178 214 191 168 121 332 290 288
238 245 254 263 272 272 276 284 290 293 301 307 314 318 321 326 322 242 258 228 211 200 197 199 190 197 211 227 209 214 281 110 156 145 172 173 203 205 233 225 21 226 144 134 98
246 249 256 264 271 277 280 281 284 288 292 297 305 310 314 321 309 265 211 173 169 169 165 169 193 233 259 238 208 238 191 197 158 174 183 201 222 226 235 76 134 139 165 155 145
253 256 257 261 267 272 275 278 281 287 290 296 299 305 316 290 266 256 230 201 182 171 167 193 227 258 257 243 215 246 177 205 187 184 215 257 243 257 221 177 176 181 168 169 216
254 256 259 263 267 270 271 273 277 281 285 291 295 298 303 267 265 252 243 231 209 195 203 203 255 249 269 249 242 41 225 217 214 220 232 231 241 205 211 189 178 174 163 194 255
253 255 258 262 267 269 271 271 274 277 280 283 289 292 276 261 264 251 237 229 219 209 213 222 225 205 199 224 216 249 265 227 228 225 242 214 245 230 171 167 165 167 178 226 264
256 254 256 258 263 266 268 268 271 273 276 278 283 289 266 255 252 242 230 224 218 216 215 219 204 181 238 159 204 246 241 250 123 183 188 195 266 152 171 172 177 183 198 229 241
257 257 254 256 259 262 263 264 266 270 272 275 280 263 260 252 237 231 216 219 216 214 212 201 174 205 172 223 236 215 262 212 195 200 155 203 244 158 182 192 200 208 207 205 209
256 257 257 255 254 257 260 263 268 272 269 270 255 258 241 230 225 219 211 195 181 176 149 176 201 216 223 216 233 259 230 250 255 161 222 214 246 163 197 214 218 211 208 207 201
257 255 256 254 251 251 253 260 278 273 233 214 235 225 206 216 206 198 196 179 158 190 205 201 216 218 224 226 251 289 282 266 269 101 258 243 251 224 201 214 218 213 213 207 198
265 255 252 252 247 245 239 219 237 255 294 262 240 233 232 201 180 197 183 179 191 207 207 185 229 236 241 267 235 239 253 256 264 150 253 270 264 260 227 213 220 221 213 200 188
258 258 252 246 245 238 234 228 234 265 265 260 234 231 221 213 211 193 183 195 208 214 203 225 225 237 198 211 218 234 240 252 260 144 239 273 267 255 244 212 216 226 212 196 185
253 248 251 232 233 231 234 232 225 244 271 248 206 231 198 192 228 203 196 184 200 220 215 243 238 167 205 227 219 243 227 254 262 251 261 166 281 278 242 207 211 208 201 189 178
249 241 237 227 220 211 229 221 181 155 273 5 140 188 177 186 144 185 179 194 209 187 179 209 186 201 214 222 206 255 63 228 247 258 272 255 264 264 242 215 208 204 199 189 179
243 244 229 222 214 215 220 185 157 195 238 167 137 166 158 204 156 119 173 173 221 225 238 259 27 204 220 110 205 130 115 85 254 264 257 240 234 258 218 231 201 190 193 186 179
247 248 224 217 210 204 193 160 177 217 147 194 171 176 193 176 172 177 180 186 183 190 224 216 221 180 175 153 151 200 177 249 238 213 256 322 219 248 226 168 200 183 187 184 179
251 249 241 218 211 199 180 175 208 231 217 98 137 168 186 160 198 183 172 205 219 223 260 214 226 198 199 214 196 197 198 203 247 235 267 23 235 244 254 124 144 183 182 179 180
243 234 236 223 213 205 185 201 209 218 209 201 140 192 202 202 190 178 202 214 208 206 204 206 235 190 189 221 211 169 222 236 310 160 269 224 246 260 161 181 170 170 175 181 184
246 251 239 225 210 194 196 210 231 231 233 211 216 198 202 196 190 195 191 221 216 201 210 217 242 171 150 174 247 210 160 176 217 229 239 242 242 241 209 198 180 179 182 184 186
244 246 230 240 203 189 204 215 223 226 213 219 220 224 227 200 199 196 207 190 203 186 198 204 240 133 152 202 186 180 205 218 224 222 257 275 243 187 204 189 185 185 186 187 189
230 225 236 209 196 208 204 213 224 219 231 233 244 223 219 216 203 208 215 214 197 155 182 199 218 234 215 130 255 225 214 205 211 186 242 288 254 157 135 176 176 185 190 192 193
229 220 240 200 216 212 212 222 228 213 215 219 225 227 226 215 221 219 215 220 181 175 171 166 190 224 248 192 178 224 218 228 227 93 226 213 247 140 144 156 181 181 187 190 189
254 218 212 238 253 227 216 217 213 222 228 220 225 228 221 231 221 239 220 159 195 199 189 156 155 202 228 216 154 204 207 208 213 224 235 237 248 183 207 190 185 188 186 186 190
249 212 212 206 229 247 219 201 210 213 219 215 226 222 212 223 231 233 226 131 190 207 174 166 220 222 246 254 244 206 205 207 209 225 215 248 239 221 201 199 196 187 182 185 191
256 226 181 263 227 245 240 214 211 212 194 212 226 221 224 218 217 225 226 207 199 181 181 148 240 224 255 242 245 259 248 221 219 228 231 246 253 243 199 199 187 184 179 187 196
246 257 294 206 214 207 222 290 225 209 216 224 220 221 219 229 232 249 252 230 228 185 182 174 196 188 250 211 243 277 237 227 232 224 223 235 246 141 153 180 191 180 189 204 207